Simultaneous Nadir Overpasses (SNOs) Predictions

Prediction of SNOs between AQUA and NPP Satellite Orbit:

Table of predicted SNOs for the next 14.0 days since TLE Epoch: 9/7/2024
Index Date (AQUA) Time (AQUA) Lat,Lon (AQUA) SZA (AQUA ) Date (NPP) Time (NPP) Lat,Lon (NPP) SZA (NPP ) Distance(km) Time Diff (sec)
1 09/09/2024 06:57:24 81.29, 1.88 82.42 09/09/2024 06:57:01 81.29, 1.99 82.42 1.76 23
2 09/09/2024 07:46:45 -81.29, 169.60 97.58 09/09/2024 07:47:46 -81.29, 169.44 97.59 2.61 61
3 09/11/2024 18:10:36 81.28,-166.60 83.34 09/11/2024 18:09:24 81.28,-166.48 83.37 2.16 72
4 09/11/2024 18:59:56 -81.30, 1.50 96.71 09/11/2024 19:00:08 -81.29, 1.39 96.70 2.09 12
5 09/14/2024 06:13:05 -81.28,-167.11 95.77 09/14/2024 06:12:31 -81.28,-167.21 95.73 1.77 34
6 09/14/2024 07:02:25 81.29, 0.82 84.22 09/14/2024 07:03:13 81.30, 1.00 84.16 3.02 48
7 09/16/2024 18:15:30 81.28,-167.59 85.14 09/16/2024 18:15:35 81.29,-167.40 85.11 3.31 5
8 09/19/2024 05:28:30 81.29, 24.25 86.04 09/19/2024 05:27:55 81.29, 24.44 86.04 3.21 35



Historial Predications of SNOs between AQUA and NPP
